FW5282 Weather Reports


Display with metric or nautical units.
time (UTC)temp
F
wind
direction
speed
MPH
gust
MPH
rain 1hr
in
rain 24hr
in
rain mn
in
humidity
%
barometer
mb
20260904102038 84 257 6.0 18.0 0.00 0.00 0.00 50 1016.6
20260904101546 84 291 7.0 18.0 0.00 0.00 0.00 54 1016.7
20260904101037 83 306 7.0 12.0 0.00 0.00 0.00 53 1016.7
20260904100609 83 296 5.0 15.0 0.00 0.00 0.00 54 1016.7
20260904100035 83 320 7.0 15.0 0.00 0.00 0.00 55 1016.7
20260904095546 83 236 5.0 13.0 0.00 0.00 0.00 56 1016.8
20260904095037 82 199 2.0 10.0 0.00 0.00 0.00 58 1016.7
20260904094547 82 258 3.0 12.0 0.00 0.00 0.00 58 1016.8
20260904094039 81 252 4.0 12.0 0.00 0.00 0.00 58 1016.9
20260904093542 81 223 7.0 12.0 0.00 0.00 0.00 59 1016.9
20260904093039 81 261 6.0 12.0 0.00 0.00 0.00 59 1016.9
20260904092553 81 259 3.0 9.0 0.00 0.00 0.00 60 1017.0
20260904092103 80 278 3.0 9.0 0.00 0.00 0.00 61 1017.0
20260904091535 80 229 2.0 8.0 0.00 0.00 0.00 62 1017.1
20260904091046 80 289 3.0 8.0 0.00 0.00 0.00 63 1017.1
20260904090619 79 214 3.0 9.0 0.00 0.00 0.00 64 1017.1
20260904090056 79 251 4.0 9.0 0.00 0.00 0.00 64 1017.1
20260904085548 79 237 2.0 7.0 0.00 0.00 0.00 66 1017.1
20260904085058 79 267 4.0 7.0 0.00 0.00 0.00 65 1017.1
20260904084548 78 236 2.0 8.0 0.00 0.00 0.00 67 1017.1
20260904084043 78 235 2.0 7.0 0.00 0.00 0.00 68 1017.1
20260904083531 78 202 3.0 9.0 0.00 0.00 0.00 68 1017.1
20260904083041 77 321 3.0 9.0 0.00 0.00 0.00 70 1017.1
20260904082556 77 288 3.0 8.0 0.00 0.00 0.00 71 1017.2
20260904082027 76 277 3.0 9.0 0.00 0.00 0.00 72 1017.3
20260904081601 76 196 2.0 9.0 0.00 0.00 0.00 72 1017.4
20260904081040 76 302 3.0 12.0 0.00 0.00 0.00 73 1017.4
20260904080531 75 244 2.0 8.0 0.00 0.00 0.00 74 1017.5
20260904080035 74 225 2.0 7.0 0.00 0.00 0.00 76 1017.5
20260904075545 74 246 1.0 5.0 0.00 0.00 0.00 76 1017.5
20260904075034 74 283 1.0 6.0 0.00 0.00 0.00 78 1017.5
20260904074542 73 275 1.0 6.0 0.00 0.00 0.00 79 1017.6
20260904074032 73 257 2.0 6.0 0.00 0.00 0.00 80 1017.6
20260904073545 72 229 1.0 4.0 0.00 0.00 0.00 80 1017.7
20260904073036 72 247 1.0 4.0 0.00 0.00 0.00 81 1017.7
20260904072545 71 281 1.0 3.0 0.00 0.00 0.00 82 1017.7
20260904072034 71 207 1.0 4.0 0.00 0.00 0.00 82 1017.7
20260904071529 70 232 2.0 4.0 0.00 0.00 0.00 83 1017.7
20260904071038 70 237 1.0 3.0 0.00 0.00 0.00 83 1017.8
20260904070531 69 221 1.0 3.0 0.00 0.00 0.00 84 1017.8
20260904070028 69 219 1.0 3.0 0.00 0.00 0.00 84 1017.8
20260904065541 68 250 1.0 4.0 0.00 0.00 0.00 85 1017.9
20260904065030 68 227 1.0 4.0 0.00 0.00 0.00 85 1017.8
20260904064606 68 261 1.0 3.0 0.00 0.00 0.00 85 1017.8
20260904064105 67 248 1.0 5.0 0.00 0.00 0.00 86 1017.8
20260904063533 67 230 1.0 5.0 0.00 0.00 0.00 86 1017.9
20260904063045 67 230 1.0 4.0 0.00 0.00 0.00 86 1017.9
20260904062534 66 238 1.0 4.0 0.00 0.00 0.00 87 1018.0
20260904062027 66 279 1.0 6.0 0.00 0.00 0.00 87 1018.1
20260904061537 66 267 1.0 3.0 0.00 0.00 0.00 88 1018.0
20260904061033 65 252 1.0 4.0 0.00 0.00 0.00 88 1017.9
20260904060603 65 258 1.0 4.0 0.00 0.00 0.00 89 1017.9
20260904060031 64 250 1.0 3.0 0.00 0.00 0.00 89 1017.9
20260904055540 64 285 1.0 3.0 0.00 0.00 0.00 90 1018.0
20260904055028 64 281 1.0 3.0 0.00 0.00 0.00 90 1018.0
20260904054539 64 229 1.0 3.0 0.00 0.00 0.00 90 1017.9
20260904054033 63 229 0.0 2.0 0.00 0.00 0.00 90 1017.9
20260904053540 63 275 1.0 2.0 0.00 0.00 0.00 90 1017.8
20260904053035 64 296 1.0 2.0 0.00 0.00 0.00 90 1017.8
20260904052546 64 297 1.0 3.0 0.00 0.00 0.00 90 1017.8
20260904052038 64 309 1.0 7.0 0.00 0.00 0.00 90 1017.8
20260904051531 64 251 2.0 7.0 0.00 0.00 0.00 90 1017.8
20260904051045 64 251 2.0 5.0 0.00 0.00 0.00 90 1017.7
20260904050617 63 236 1.0 5.0 0.00 0.00 0.00 90 1017.7
20260904050043 63 238 2.0 3.0 0.00 0.00 0.00 90 1017.7
20260904045540 63 255 1.0 5.0 0.00 0.00 0.00 90 1017.7
20260904045046 63 215 2.0 5.0 0.00 0.00 0.00 90 1017.7
20260904044602 63 265 2.0 7.0 0.00 0.00 0.00 90 1017.6
20260904044034 63 213 2.0 7.0 0.00 0.00 0.00 90 1017.6
20260904043544 63 252 2.0 5.0 0.00 0.00 0.00 90 1017.6
20260904043037 64 226 2.0 5.0 0.00 0.00 0.00 90 1017.5
20260904042529 64 234 2.0 4.0 0.00 0.00 0.00 90 1017.5
20260904042036 64 227 2.0 5.0 0.00 0.00 0.00 90 1017.5
20260904041530 64 238 2.0 5.0 0.00 0.00 0.00 89 1017.6
20260904041043 64 225 2.0 5.0 0.00 0.00 0.00 89 1017.6
20260904040550 64 237 1.0 4.0 0.00 0.00 0.00 89 1017.6
20260904040040 64 222 1.0 4.0 0.00 0.00 0.00 89 1017.7
20260904035537 64 245 1.0 3.0 0.00 0.00 0.00 89 1017.7
20260904035034 64 232 1.0 4.0 0.00 0.00 0.00 89 1017.7
20260904034546 64 229 1.0 4.0 0.00 0.00 0.00 89 1017.7
20260904034038 64 292 1.0 4.0 0.00 0.00 0.00 88 1017.7
20260904033532 65 201 1.0 5.0 0.00 0.00 0.00 88 1017.7
20260904033028 65 227 1.0 5.0 0.00 0.00 0.00 88 1017.7
20260904032543 65 237 1.0 3.0 0.00 0.00 0.00 88 1017.9
20260904032034 65 221 1.0 4.0 0.00 0.00 0.00 87 1017.8
20260904031545 65 220 1.0 4.0 0.00 0.00 0.00 87 1017.9
20260904031034 65 237 1.0 3.0 0.00 0.00 0.00 87 1017.9
20260904030544 65 258 1.0 3.0 0.00 0.00 0.00 87 1017.9
20260904030030 65 243 1.0 2.0 0.00 0.00 0.00 87 1018.0
20260904025543 65 232 1.0 2.0 0.00 0.00 0.00 87 1018.0
20260904025035 65 233 1.0 2.0 0.00 0.00 0.00 87 1018.1
20260904024550 65 229 1.0 3.0 0.00 0.00 0.00 87 1018.1
20260904024046 66 223 1.0 3.0 0.00 0.00 0.00 87 1018.1
20260904023541 66 238 1.0 3.0 0.00 0.00 0.00 87 1018.1
20260904023037 66 227 1.0 3.0 0.00 0.00 0.00 86 1018.2
20260904022548 66 261 0.0 1.0 0.00 0.00 0.00 86 1018.3
20260904022050 66 238 0.0 1.0 0.00 0.00 0.00 86 1018.2
20260904021547 66 242 0.0 3.0 0.00 0.00 0.00 86 1018.2
20260904021038 66 213 1.0 3.0 0.00 0.00 0.00 86 1018.3
20260904020552 66 217 1.0 3.0 0.00 0.00 0.00 85 1018.3
20260904020038 66 225 1.0 3.0 0.00 0.00 0.00 85 1018.3
20260904015545 66 217 1.0 2.0 0.00 0.00 0.00 86 1018.4
20260904015037 66 265 1.0 2.0 0.00 0.00 0.00 85 1018.4
20260904014545 66 224 0.0 1.0 0.00 0.00 0.00 85 1018.5
20260904014043 66 221 0.0 2.0 0.00 0.00 0.00 85 1018.6
20260904013536 66 215 0.0 2.0 0.00 0.00 0.00 85 1018.5
20260904013031 66 220 1.0 2.0 0.00 0.00 0.00 85 1018.6
20260904012553 66 236 1.0 2.0 0.00 0.00 0.00 85 1018.6
20260904012036 67 214 1.0 2.0 0.00 0.00 0.00 85 1018.7
20260904011547 67 234 1.0 2.0 0.00 0.00 0.00 84 1018.8
20260904011059 67 234 1.0 3.0 0.00 0.00 0.00 84 1018.9
20260904010548 67 225 1.0 3.0 0.00 0.00 0.00 85 1018.9
20260904010046 67 222 1.0 2.0 0.00 0.00 0.00 85 1019.0
20260904005540 67 235 0.0 1.0 0.00 0.00 0.00 84 1019.0
20260904005103 67 242 0.0 1.0 0.00 0.00 0.00 84 1019.0
20260904004533 67 236 0.0 1.0 0.00 0.00 0.00 84 1019.1
20260904004042 67 264 0.0 1.0 0.00 0.00 0.00 83 1019.2
20260904003538 67 264 0.0 2.0 0.00 0.00 0.00 83 1019.2
20260904003028 67 242 0.0 2.0 0.00 0.00 0.00 84 1019.2
20260904002544 67 256 1.0 2.0 0.00 0.00 0.00 83 1019.2
20260904002034 67 234 0.0 1.0 0.00 0.00 0.00 83 1019.2
20260904001545 67 233 0.0 3.0 0.00 0.00 0.00 83 1019.3
20260904001037 67 217 1.0 3.0 0.00 0.00 0.00 83 1019.3
20260904000619 67 209 1.0 3.0 0.00 0.00 0.00 82 1019.3
20260904000043 68 220 1.0 2.0 0.00 0.00 0.00 82 1019.3
20260903235541 68 198 1.0 2.0 0.00 0.00 0.00 82 1019.4
20260903235104 68 193 0.0 1.0 0.00 0.00 0.00 82 1019.4
20260903234539 68 202 0.0 1.0 0.00 0.00 0.00 82 1019.4
20260903234029 68 203 0.0 1.0 0.00 0.00 0.00 82 1019.5
20260903233540 68 219 0.0 1.0 0.00 0.00 0.00 81 1019.5
20260903233036 68 219 0.0 1.0 0.00 0.00 0.00 81 1019.6
20260903232527 68 219 0.0 1.0 0.00 0.00 0.00 81 1019.5
20260903232042 68 219 0.0 1.0 0.00 0.00 0.00 81 1019.6
20260903231537 68 219 0.0 2.0 0.00 0.00 0.00 80 1019.6
20260903231041 69 213 1.0 2.0 0.00 0.00 0.00 80 1019.6
20260903230557 69 205 0.0 2.0 0.00 0.00 0.00 80 1019.6
20260903230042 69 207 0.0 1.0 0.00 0.00 0.00 80 1019.6
20260903225537 69 203 0.0 2.0 0.00 0.00 0.00 79 1019.6
20260903225029 69 216 0.0 1.0 0.00 0.00 0.00 79 1019.6
20260903224543 69 221 1.0 2.0 0.00 0.00 0.00 79 1019.7
20260903224028 69 223 0.0 2.0 0.00 0.00 0.00 79 1019.8
20260903223606 70 217 0.0 1.0 0.00 0.00 0.00 79 1019.8
20260903223038 70 228 0.0 2.0 0.00 0.00 0.00 78 1019.8
20260903222550 70 225 0.0 1.0 0.00 0.00 0.00 78 1019.8
20260903222045 70 238 0.0 1.0 0.00 0.00 0.00 78 1019.8
20260903221538 70 243 0.0 1.0 0.00 0.00 0.00 78 1019.8
20260903221030 70 240 0.0 1.0 0.00 0.00 0.00 78 1019.8
20260903220545 70 250 0.0 1.0 0.00 0.00 0.00 77 1019.7
20260903220035 70 230 0.0 1.0 0.00 0.00 0.00 77 1019.8
20260903215531 70 231 0.0 0.0 0.00 0.00 0.00 77 1019.8
20260903215043 70 231 0.0 1.0 0.00 0.00 0.00 76 1019.8
20260903214541 71 231 0.0 1.0 0.00 0.00 0.00 76 1019.8
20260903214035 71 267 0.0 1.0 0.00 0.00 0.00 76 1019.8
20260903213532 71 267 0.0 1.0 0.00 0.00 0.00 75 1019.8
20260903213032 71 267 0.0 1.0 0.00 0.00 0.00 75 1019.8
20260903212546 72 252 0.0 1.0 0.00 0.00 0.00 74 1019.7
20260903212044 72 227 0.0 1.0 0.00 0.00 0.00 74 1019.8
20260903211540 72 227 0.0 1.0 0.00 0.00 0.00 74 1019.9
20260903211029 72 240 0.0 1.0 0.00 0.00 0.00 73 1019.8
20260903210542 73 240 0.0 1.0 0.00 0.00 0.00 72 1019.8
20260903210028 73 240 0.0 1.0 0.00 0.00 0.00 72 1019.8
20260903205543 73 223 0.0 1.0 0.00 0.00 0.00 71 1019.9
20260903205035 74 222 0.0 1.0 0.00 0.00 0.00 71 1019.8
20260903204531 74 222 0.0 2.0 0.00 0.00 0.00 70 1019.8
20260903204030 74 246 0.0 2.0 0.00 0.00 0.00 70 1019.9
20260903203546 74 224 1.0 2.0 0.00 0.00 0.00 69 1019.8
20260903203030 75 223 1.0 2.0 0.00 0.00 0.00 69 1019.9
20260903202545 75 236 0.0 2.0 0.00 0.00 0.00 69 1019.9
20260903202037 75 234 0.0 3.0 0.00 0.00 0.00 68 1020.0
20260903201530 75 217 1.0 3.0 0.00 0.00 0.00 68 1020.0
20260903201042 75 265 0.0 2.0 0.00 0.00 0.00 68 1020.1
20260903200558 75 278 1.0 3.0 0.00 0.00 0.00 67 1020.1
20260903200027 75 234 1.0 3.0 0.00 0.00 0.00 68 1020.0
20260903195539 75 282 1.0 3.0 0.00 0.00 0.00 68 1020.1
20260903195027 75 225 1.0 2.0 0.00 0.00 0.00 67 1020.1
20260903194539 76 246 0.0 2.0 0.00 0.00 0.00 67 1020.1
20260903194033 76 227 0.0 2.0 0.00 0.00 0.00 66 1020.1
20260903193532 76 227 0.0 2.0 0.00 0.00 0.00 66 1020.1
20260903193027 77 240 0.0 2.0 0.00 0.00 0.00 65 1020.1
20260903192536 77 227 1.0 2.0 0.00 0.00 0.00 65 1020.0
20260903192033 77 219 1.0 2.0 0.00 0.00 0.00 64 1020.0
20260903191547 77 222 1.0 2.0 0.00 0.00 0.00 64 1019.9
20260903191041 77 224 1.0 2.0 0.00 0.00 0.00 64 1019.9
20260903190535 78 225 1.0 2.0 0.00 0.00 0.00 63 1019.9
20260903190027 78 233 1.0 3.0 0.00 0.00 0.00 63 1019.9
20260903185540 78 212 1.0 3.0 0.00 0.00 0.00 63 1019.8
20260903185028 78 236 1.0 2.0 0.00 0.00 0.00 62 1019.9
20260903184540 78 227 1.0 2.0 0.00 0.00 0.00 62 1019.9
20260903184034 79 221 0.0 2.0 0.00 0.00 0.00 61 1019.9
20260903183546 79 232 0.0 2.0 0.00 0.00 0.00 61 1019.9
20260903183040 79 240 0.0 2.0 0.00 0.00 0.00 61 1020.0
20260903182534 80 211 0.0 2.0 0.00 0.00 0.00 60 1019.8
20260903182052 80 238 1.0 2.0 0.00 0.00 0.00 60 1019.9
20260903181609 80 244 0.0 2.0 0.00 0.00 0.00 59 1019.9
20260903181043 80 279 1.0 3.0 0.00 0.00 0.00 59 1019.9
20260903180538 80 276 1.0 3.0 0.00 0.00 0.00 58 1020.0
20260903180027 81 227 0.0 4.0 0.00 0.00 0.00 58 1020.0
20260903175540 81 217 1.0 6.0 0.00 0.00 0.00 58 1020.0
20260903175037 81 267 2.0 6.0 0.00 0.00 0.00 58 1020.0
20260903174530 81 268 1.0 5.0 0.00 0.00 0.00 57 1020.1
20260903174033 82 284 1.0 2.0 0.00 0.00 0.00 57 1020.1
20260903173533 82 285 1.0 3.0 0.00 0.00 0.00 56 1020.1
20260903173105 82 303 1.0 5.0 0.00 0.00 0.00 57 1020.0
20260903172540 82 288 1.0 9.0 0.00 0.00 0.00 56 1020.0
20260903172037 82 355 1.0 9.0 0.00 0.00 0.00 56 1020.1
20260903171557 83 267 2.0 10.0 0.00 0.00 0.00 55 1020.1
20260903171034 83 285 3.0 10.0 0.00 0.00 0.00 54 1020.0
20260903170616 84 254 3.0 11.0 0.00 0.00 0.00 54 1020.0
20260903170050 84 263 3.0 11.0 0.00 0.00 0.00 53 1020.0
20260903165609 84 269 3.0 8.0 0.00 0.00 0.00 53 1020.0
20260903165045 84 234 1.0 8.0 0.00 0.00 0.00 53 1019.9
20260903164539 84 283 2.0 10.0 0.00 0.00 0.00 53 1019.9
20260903164030 84 286 1.0 10.0 0.00 0.00 0.00 52 1019.9
20260903163547 85 291 2.0 9.0 0.00 0.00 0.00 52 1019.8
20260903163046 85 298 1.0 9.0 0.00 0.00 0.00 53 1019.8
20260903162542 85 309 1.0 7.0 0.00 0.00 0.00 52 1019.9
20260903162035 85 215 2.0 8.0 0.00 0.00 0.00 52 1019.9
20260903161529 85 242 2.0 11.0 0.00 0.00 0.00 52 1020.0
20260903161043 85 283 4.0 12.0 0.00 0.00 0.00 52 1020.0
20260903160601 85 308 6.0 12.0 0.00 0.00 0.00 51 1020.0
20260903160046 86 278 7.0 11.0 0.00 0.00 0.00 51 1020.1
20260903155537 86 329 3.0 10.0 0.00 0.00 0.00 52 1020.1
20260903155058 86 311 3.0 10.0 0.00 0.00 0.00 52 1020.2
20260903154530 86 279 3.0 10.0 0.00 0.00 0.00 52 1020.2
20260903154043 86 296 2.0 10.0 0.00 0.00 0.00 51 1020.2
20260903153541 86 273 5.0 11.0 0.00 0.00 0.00 51 1020.2
20260903153034 86 322 3.0 11.0 0.00 0.00 0.00 51 1020.2
20260903152527 86 290 2.0 8.0 0.00 0.00 0.00 51 1020.2
20260903152054 86 228 4.0 8.0 0.00 0.00 0.00 51 1020.2
20260903151542 86 263 1.0 9.0 0.00 0.00 0.00 51 1020.4
20260903151036 86 229 4.0 9.0 0.00 0.00 0.00 52 1020.4
20260903150548 86 327 4.0 10.0 0.00 0.00 0.00 52 1020.4
20260903150040 86 285 6.0 10.0 0.00 0.00 0.00 50 1020.4
20260903145532 86 312 3.0 9.0 0.00 0.00 0.00 52 1020.4
20260903145042 86 269 2.0 6.0 0.00 0.00 0.00 52 1020.5
20260903144535 86 226 1.0 11.0 0.00 0.00 0.00 51 1020.5
20260903144031 86 287 4.0 11.0 0.00 0.00 0.00 51 1020.6
20260903143545 85 344 3.0 10.0 0.00 0.00 0.00 52 1020.6
20260903143035 86 279 5.0 10.0 0.00 0.00 0.00 51 1020.6
20260903142530 85 270 3.0 10.0 0.00 0.00 0.00 52 1020.7
20260903142052 86 284 2.0 10.0 0.00 0.00 0.00 51 1020.7
20260903141544 86 305 5.0 10.0 0.00 0.00 0.00 51 1020.7
20260903141036 86 319 3.0 9.0 0.00 0.00 0.00 52 1020.7
20260903140544 85 320 1.0 13.0 0.00 0.00 0.00 52 1020.6
20260903140104 85 273 3.0 13.0 0.00 0.00 0.00 52 1020.5
20260903135536 84 242 1.0 11.0 0.00 0.00 0.00 52 1020.6
20260903135028 85 283 4.0 13.0 0.00 0.00 0.00 52 1020.8
20260903134531 85 223 4.0 13.0 0.00 0.00 0.00 52 1020.7
20260903134044 85 270 4.0 9.0 0.00 0.00 0.00 52 1020.7
20260903133540 85 240 2.0 8.0 0.00 0.00 0.00 52 1020.8
20260903133031 85 284 2.0 11.0 0.00 0.00 0.00 54 1020.8
20260903132544 85 217 2.0 11.0 0.00 0.00 0.00 53 1020.9
20260903132044 84 286 4.0 12.0 0.00 0.00 0.00 52 1020.8
20260903131542 84 360 3.0 12.0 0.00 0.00 0.00 53 1020.9
20260903131038 84 348 3.0 10.0 0.00 0.00 0.00 54 1020.8
20260903130555 84 264 2.0 12.0 0.00 0.00 0.00 54 1020.9
20260903130045 84 263 6.0 12.0 0.00 0.00 0.00 53 1020.8
20260903125536 84 294 1.0 14.0 0.00 0.00 0.00 54 1020.9
20260903125042 83 284 3.0 14.0 0.00 0.00 0.00 54 1021.0
20260903124532 83 253 3.0 12.0 0.00 0.00 0.00 55 1021.1
20260903124045 82 286 5.0 12.0 0.00 0.00 0.00 56 1021.1
20260903123537 82 268 4.0 9.0 0.00 0.00 0.00 56 1021.1
20260903123029 82 217 3.0 10.0 0.00 0.00 0.00 56 1021.2
20260903122540 82 222 5.0 10.0 0.00 0.00 0.00 56 1021.1
20260903122039 81 265 2.0 11.0 0.00 0.00 0.00 57 1021.2
20260903121537 81 219 4.0 12.0 0.00 0.00 0.00 58 1021.1
20260903121030 80 229 4.0 12.0 0.00 0.00 0.00 58 1021.1
20260903120545 80 223 4.0 10.0 0.00 0.00 0.00 58 1021.0
20260903120034 80 254 4.0 11.0 0.00 0.00 0.00 59 1021.1
20260903115553 80 279 4.0 12.0 0.00 0.00 0.00 58 1021.2
20260903115042 80 238 4.0 12.0 0.00 0.00 0.00 58 1021.3
20260903114535 79 270 3.0 11.0 0.00 0.00 0.00 58 1021.3
20260903114025 80 262 5.0 11.0 0.00 0.00 0.00 57 1021.3
20260903113607 80 217 3.0 13.0 0.00 0.00 0.00 60 1021.3
20260903113036 79 232 4.0 13.0 0.00 0.00 0.00 59 1021.4
20260903112529 79 275 4.0 12.0 0.00 0.00 0.00 60 1021.5
20260903112046 80 303 5.0 12.0 0.00 0.00 0.00 59 1021.4
20260903111539 80 257 2.0 10.0 0.00 0.00 0.00 61 1021.5
20260903111102 79 238 2.0 9.0 0.00 0.00 0.00 61 1021.5
20260903110557 79 238 2.0 8.0 0.00 0.00 0.00 62 1021.4
20260903110043 78 207 3.0 11.0 0.00 0.00 0.00 64 1021.5
20260903105603 78 216 3.0 11.0 0.00 0.00 0.00 63 1021.6
20260903105045 78 196 5.0 11.0 0.00 0.00 0.00 64 1021.6
20260903104540 78 279 1.0 11.0 0.00 0.00 0.00 63 1021.6
20260903104029 78 210 3.0 11.0 0.00 0.00 0.00 64 1021.7
20260903103535 77 232 2.0 11.0 0.00 0.00 0.00 64 1021.7
20260903103027 77 216 5.0 13.0 0.00 0.00 0.00 65 1021.8
20260903102540 77 331 7.0 13.0 0.00 0.00 0.00 66 1021.8